Location: Bonny Doon Airfield
(37.0704°N, 122.1252°W)
Time: 17:50:38
(UTC-08:00)

BREEZE M DEB (TANK) - Visible Passes

Search period start: 22 November 2017 00:00
Search period end: 02 December 2017 00:00
Orbit: 340 x 13672 km, 49.6° (Epoch: 20 November)

Date Brightness Start Highest point End Pass type
(mag) Time Alt. Az. Time Alt. Az. Time Alt. Az.
22 Nov 8.9 03:52:22 10° SSW 05:53:14 88° SE 06:31:22 10° NE visible
23 Nov 9.6 01:12:00 10° SSE 02:52:10 50° ESE 03:44:04 10° NE visible
23 Nov 8.3 05:54:13 10° SW 07:54:49 70° NNW 08:18:12 10° ENE visible
23 Nov 10.0 23:34:35 10° ESE 00:08:48 13° E 00:35:09 10° ENE visible
24 Nov 9.1 02:52:12 10° SSW 04:48:12 78° SE 05:33:22 10° NE visible
25 Nov 9.7 00:21:06 10° SSE 01:51:49 39° E 02:43:43 10° NE visible
25 Nov 8.6 04:46:25 10° SW 06:50:31 77° NNW 07:20:41 10° ENE visible
26 Nov 9.4 01:54:12 10° S 03:43:57 67° ESE 04:34:55 10° NE visible
26 Nov 9.8 23:35:52 10° SE 00:53:06 28° E 01:41:22 10° ENE visible
27 Nov 8.9 03:42:32 10° SSW 05:44:56 86° NW 06:22:54 10° ENE visible
28 Nov 9.5 00:58:25 10° S 02:41:07 56° ESE 03:35:49 10° NE visible
28 Nov 8.3 05:47:27 10° WSW 07:47:34 67° NNW 08:09:48 10° ENE visible
28 Nov 9.9 23:01:03 10° ESE 23:56:02 19° E 00:34:38 10° ENE visible
29 Nov 9.1 02:41:27 10° SSW 04:38:56 84° SE 05:24:48 10° NE visible
30 Nov 9.6 00:05:21 10° SSE 01:39:58 45° ESE 02:35:47 10° NE visible
30 Nov 8.6 04:38:00 10° SW 06:43:01 73° NNW 07:12:08 10° ENE visible
01 Dec 9.3 01:42:33 10° S 03:33:36 73° ESE 04:26:18 10° NE visible
01 Dec 7.8 06:59:24 10° W 08:42:51 63° N 08:58:44 10° E visible
